Other Public Products
Issued by NWS Grand Forks, ND

Home | Current Version | Previous Version | Text Only | Print | Product List | Glossary Off
Versions: 1 2 3 4 5 6 7 8 9 10 11 12 13 14 15 16 17 18 19 20 21 22 23 24 25 26 27 28 29 30 31 32 33 34 35 36 37 38 39 40 41 42 43 44 45 46 47 48 49 50

000
FPUS83 KFGF 101531
OPUFGF
PRAIRIE TO PINES WEATHER ROUNDUP
NATIONAL WEATHER SERVICE EASTERN NORTH DAKOTA/GRAND FORKS ND
900 AM CST SAT DEC 10 2016

 **SATELLITE DATA USED TO AUGMENT SKY COVER AT AUTOMATED STATIONS**
 *****  WEATHER ACROSS EASTERN NORTH DAKOTA  *****

CITY           SKY/WX    TMP DP  RH WIND       PRES   REMARKS
GRAND FORKS    CLOUDY    -8 -14  74 N5        30.47F WCI -19
GRAND FORKS AF CLOUDY   -13 -19  75 CALM      30.46F
GRAND CITY NWS NOT AVBL
BUXTON           N/A     29  26  90 CALM        N/A
DEVILS LAKE    CLOUDY   -16 -20  82 CALM      30.37F
FARGO          CLOUDY    -4 -10  75 CALM      30.45F
WAHPETON ARPT  CLOUDY    -6 -11  77 CALM      30.45F
$$

 *****  WEATHER ACROSS CENTRAL AND WESTERN NORTH DAKOTA  *****

CITY           SKY/WX    TMP DP  RH WIND       PRES   REMARKS
JAMESTOWN      CLOUDY   -12 -16  82 CALM      30.35F
BISMARCK       CLOUDY   -17 -22  78 E6        30.33S WCI -32
MINOT          CLOUDY   -20 -25  77 CALM      30.29F
MINOT AFB      CLOUDY   -24 -30  75 S1        30.30F
GARRISON         N/A    -13 -17  82 E7        30.26F WCI -29
WILLISTON      CLOUDY    -7 -12  79 E6        30.18F WCI -20
DICKINSON      CLOUDY    -5 -10  79 SE16      30.09F WCI -27
HETTINGER      CLOUDY    -5  -9  83 SE12      30.10F FOG     WCI -23
$$

 *****  OTHER OBSERVATIONS NORTHEAST NORTH DAKOTA  *****

CITY           SKY/WX    TMP DP  RH WIND       PRES   REMARKS
WALHALLA         N/A    -17 -17 100 S3        30.45F
LANGDON        FAIR     -15 -20  76 S7        30.35F WCI -31
CAVALIER         N/A    -13 -18  77 W3        30.46F
GRAFTON        FAIR     -11 -17  77 CALM      30.49F
CANDO          FAIR     -13 -18  77 CALM      30.39S
FORT TOTTEN      N/A    -16 -22  73 SE2       29.95S
ROLLA            N/A    -18 -22  83 SW8       30.31S WCI -37
RUGBY            N/A    -18 -22  83 SE3       30.34F
 ***** THE ABOVE OBSERVATIONS ARE NON NWS ARE NOT QUALITY
        CONTROLLED AND MAY MIS-REPORT RAIN FOR SNOW...
$$

 *****  OTHER OBSERVATIONS SOUTHEAST NORTH DAKOTA *****

CITY           SKY/WX    TMP DP  RH WIND       PRES   REMARKS
COOPERSTOWN    FAIR     -17 -22  76 NE5       30.37F WCI -29
VALLEY CITY    CLOUDY   -11 -15  84 CALM      30.38F
OAKES          NOT AVBL
GWINNER        CLOUDY    -6  -9  84 E5        30.40F WCI -17
SHEYENNE NWR     N/A    -11 -19  69 CALM      29.95S
BUFFALO          N/A     -8 -14  76 NE3         N/A
WYNDMERE         N/A     -8 -11  84 E3          N/A
 ***** THE ABOVE OBSERVATIONS ARE NON NWS ARE NOT QUALITY
       CONTROLLED AND MAY MIS-REPORT RAIN FOR SNOW...
$$

  *****  WEATHER ACROSS NORTHERN MINNESOTA  *****

CITY           SKY/WX    TMP DP  RH WIND       PRES   REMARKS
FLAG ISLAND    CLOUDY    -8 -11  84 NW6       30.41F WCI -21
WARROAD        CLOUDY   -11 -17  77 CALM      30.43S
ROSEAU         HAZE      -8 -13  77 CALM      30.44S VSB 3/4
HALLOCK        CLOUDY   -13 -18  77 CALM      30.48R
THF RVR FALLS  FLURRIES  -5  -9  83 CALM      30.45F
HALSTAD          N/A    -11 -17  77 E5          N/A  WCI -23
FOSSTON        CLOUDY   -11 -17  77 CALM      30.43F
BAUDETTE       PTCLDY   -10 -15  78 CALM      30.40F
WASKISH        CLOUDY    -6  -8  92 CALM      30.41F
CROOKSTON      CLOUDY    -8 -13  77 SE5       30.47F WCI -19
$$
  *****  WEATHER ACROSS CENTRAL AND WEST MINNESOTA  *****

CITY           SKY/WX    TMP DP  RH WIND       PRES   REMARKS
BEMIDJI        CLOUDY   -13 -17  82 CALM      30.40F
PARK RAPIDS    CLOUDY   -14 -20  74 CALM      30.39F
WADENA         CLOUDY    -8  -9  92 CALM      30.39F
DETROIT LAKES  CLOUDY   -13 -17  84 CALM      30.41F
MOORHEAD       CLOUDY    -9 -15  77 E3        30.45F
FERGUS FALLS   CLOUDY    -9 -15  77 E5        30.46F WCI -21
ELBOW LAKE     FAIR      -7 -10  85 CALM      30.42F
MORRIS MN      CLOUDY    -4  -9  77 CALM      30.41F
STAPLES        NOT AVBL
WHEATON        CLOUDY    -4  -8  84 CALM      30.45F
$$
  *****  WEATHER ELSEWHERE ACROSS MINNESOTA  *****

CITY           SKY/WX    TMP DP  RH WIND       PRES   REMARKS
DULUTH         CLOUDY     1  -5  75 NW9       30.40S WCI -14
INTRNTL FALLS  CLOUDY    -9 -13  83 CALM      30.41S
ELY            PTCLDY    -6  -9  84 SW3       30.38S
CLOQUET        CLOUDY     1  -6  71 CALM      30.41F
BRAINERD       CLOUDY     0  -4  83 SW7       30.42F WCI -13
HIBBING        CLEAR     -9 -12  87 CALM      30.41S
ALEXANDRIA     CLOUDY    -4  -8  83 NE3       30.39F
SAINT CLOUD    PTCLDY     1  -4  79 N5        30.45F WCI  -9
MINNEAPOLIS    CLOUDY     6   0  76 N3        30.48F
$$

  *****  WEATHER ACROSS SOUTH DAKOTA  *****

CITY           SKY/WX    TMP DP  RH WIND       PRES   REMARKS
SIOUX FALLS    LGT SNOW  11   7  84 E14       30.33F VSB 1   WCI  -5
BROOKINGS      LGT SNOW   4   0  83 E10       30.31F FOG     WCI -11
WATERTOWN      LGT SNOW   1  -3  83 E8        30.30F FOG     WCI -13
HURON          LGT SNOW   7   3  84 E10       30.33F VSB 1   WCI  -8
SISSETON         N/A     -5 -10  79 CALM      30.42F
ABERDEEN       CLOUDY    -4 -12  68 NE9       30.38F WCI -20
MITCHELL       LGT SNOW  10   7  87 E10       30.32F VSB 3/4 WCI  -4
PIERRE         FLURRIES   1  -4  79 E13       30.24F WCI -17
MOBRIDGE       CLOUDY    -1  -9  68 E8        30.25F WCI -15
RAPID CITY     CLOUDY     2  -2  83 SE8       29.99F WCI -12
$$

  *****  SOME WEATHER IN NEARBY STATES *****

CITY           SKY/WX    TMP DP  RH WIND       PRES   REMARKS
GLASGOW MT     LGT SNOW  -2  -7  79 E17       30.01F WCI -23
GREAT FALLS MT CLOUDY     1  -3  83 N3        29.74F
CHEYENNE WY    CLOUDY    43  20  39 SW14G24   29.87F
SCOTTSBLUFF NE CLOUDY    17  12  80 SE12      29.90F WCI   4
OMAHA NE       CLOUDY    23  17  78 E9        30.37F WCI  13
DES MOINES IA  LGT SNOW  24  15  68 SE9       30.44S WCI  14
DAVENPORT IA   CLOUDY    22  14  71 SW6       30.52S WCI  14
CHICAGO IL     PTSUNNY   19  13  77 W10       30.52R WCI   7
EAU CLAIRE WI  MOSUNNY    9   2  73 W7        30.46F WCI  -2
LA CROSSE WI   CLOUDY    11   5  77 NW3       30.50F
$$

  *****  SOME NATIONAL WEATHER *****

CITY           SKY/WX    TMP DP  RH WIND       PRES   REMARKS
LA GUARDIA NY  PTSUNNY   34  19  54 W13       30.40S WCI  25
RALEIGH NC     SUNNY     33  17  51 NE8       30.58R
ATLANTA GA     SUNNY     35  19  52 N3        30.54R
NEW ORLEANS LA SUNNY     44  28  53 E14       30.55R
OKLAHOMA CITY  CLOUDY    35  23  61 S17       30.34F WCI  25
ALBUQUERQUE NM CLOUDY    29  24  82 SE3       30.26S
SALT LAKE CITY LGT RAIN  41  37  86 E3        29.96F
LOS ANGELES CA CLOUDY    54  53  97 E5        30.17R FOG
BOISE ID       CLOUDY    33  32  96 CALM      29.85R FOG
SEATTLE WA     MOCLDY    38  36  92 S9        29.86S
$$

*** WEATHER ACROSS MANITOBA...SASKATCHEWAN AND ONTARIO ***
                ***ONTARIO***

CITY           SKY/WX    TMP DP  RH WIND       PRES   REMARKS
GERALDTON      MOCLDY    -8 -13  77 W3        30.31R
THUNDER BAY    PTCLDY     5   0  78 W8        30.42R WCI  -8
SIOUX LOOKOUT  FLURRIES  -8 -13  77 N6        30.35S WCI -21
TORONTO        FLURRIES  23  18  80 CALM      30.34R
BIG TROUT LK   FLURRIES -11 -15  84 W12       30.34S WCI -31
PICKLE LAKE    LGT SNOW  -8 -11  84 NW3       30.32S
DRYDEN         CLEAR     -9 -15  77 W3        30.35F
KENORA         SNOW      -6 -11  77 W5        30.37F VSB 1/4 WCI -17
$$
                *** MANITOBA***

CITY           SKY/WX    TMP DP  RH WIND       PRES   REMARKS
BRANDON        PTCLDY   -22 -27  76 W6        30.36F WCI -38
DAUPHIN        CLEAR    -24 -29  76 W7        30.39F WCI -42
ISLAND LAKE    FLURRIES  -6  -9  84 W7        30.39F WCI -20
PILOT MOUND      N/A    -20 -26  76 S7          N/A  WCI -37
THE PAS        PTCLDY   -11 -17  77 S6        30.35F WCI -25
THOMPSON       FLURRIES  -4  -9  77 SW2       30.32F
WINNIPEG       PTCLDY   -13 -18  77 SW3       30.47F
LYNN LAKE      MOCLDY   -11 -15  84 SW3       30.20F
CHURCHILL      PTCLDY   -13 -18  77 W13       30.25F WCI -34
GILLAM         FLURRIES  -8 -13  77 SW6       30.33F WCI -21
$$
                ***SASKATCHEWAN***

CITY           SKY/WX    TMP DP  RH WIND       PRES   REMARKS
ESTEVAN        PTCLDY   -22 -27  76 E8        30.23F WCI -41
KINDERSLEY     CLOUDY    -4  -8  84 E15       30.02F WCI -25
LLOYDMINSTER   CRYSTALS -24 -29  76 E5        30.09F WCI -38
PRINCE ALBERT  CRYSTALS -24 -29  76 CALM      30.27F
REGINA         MOCLDY   -17 -22  76 SE10      30.21F WCI -37
YORKTON        CLEAR    -20 -26  76 S3        30.29F   C1F1C2F2C3F3C4F4C5F5C6F6C7F7C8F8C9F9CaFaCbFbCcFcCdFdCe!


USA.gov is the U.S. government's official web portal to all federal, state and local government web resources and services.